Find Orbcomm D7

NORAD ID: 25985 Int'l Des: 1999-065 Owner: ORBC Country: US Constellation: orbcomm operational
LEOCIRCULAR

实时位置

正在加载3D地球...

关于 Orbcomm D7

正在加载描述...

即将过境

Passes for default location (London). Set your location on the main map for personalized predictions.

高度历史

Loading altitude history...

两行轨道根数

1 25985U 99065F 26132.51598453 .00000476 00000-0 20266-3 0 9998
2 25985 45.0408 336.6926 0003180 240.1919 119.8614 14.38010421382170
Epoch: May 12, 2026 • Age: 7 hours

当前状态

高度 769.2 km
速度 7.47 km/s
星下点 35.78°N, 139.18°W
发射日期 Dec 4, 1999
运行时间 26.4 years
类型 other

技术详情

分类 Payload
质量 44.00 kg
干质量 44.00 kg
总质量 44.00 kg
长度 0.20 m
直径 1.00 m
跨度 4.30 m
形状 Cyl + 2 Pan + Ant
制造商 OSCG
平台类型 Microstar
阶段状态 In Orbit
所有者/国家 ORBC/US

Most Searched